Regional Weather Roundup
Issued by NWS Newport/Morehead, NC

Current Version | Previous Version | Text Only | Print | Product List | Glossary Off
Versions: 1 2 3 4 5 6 7 8 9 10 11 12 13 14 15 16 17 18 19 20 21 22 23 24 25 26 27 28 29 30 31 32 33 34 35 36 37 38 39 40 41 42 43 44 45 46 47 48 49 50
000 ASUS42 KMHX 171710 RWRMHX WEATHER ROUNDUP FOR EASTERN NORTH CAROLINA NATIONAL WEATHER SERVICE NEWPORT/MOREHEAD CITY NC 100 PM EDT WED SEP 17 2014 NOTE: "FAIR" INDICATES FEW OR NO CLOUDS BELOW 12,000 FEET WITH NO SIGNIFICANT WEATHER AND/OR OBSTRUCTIONS TO VISIBILITY NCZ015>017-031-032-045>047-102-103-171800- NORTH COAST CITY SKY/WX TMP DP RH WIND PRES REMARKS EDENTON NOT AVBL ELIZABETH CITY CLOUDY 74 62 66 NE12 29.99 KITTY HAWK CLOUDY 74 60 62 NE7 29.96F MANTEO NOT AVBL $$ NCZ045>047-081-094-103-104-171800- CENTRAL COAST CITY SKY/WX TMP DP RH WIND PRES REMARKS FRISCO CLOUDY 76 67 73 E9 29.94F SWANQUARTER N/A 77 N/A N/A NE12G17 29.91S $$ NCZ095-097-098-100-101-171800- SOUTHERN COAST CITY SKY/WX TMP DP RH WIND PRES REMARKS BEAUFORT PTSUNNY 78 69 73 E13G20 29.92F CEDAR ISLAND N/A 77 N/A N/A E14G21 29.97S JACKSONVILLE MOSUNNY 82 69 64 E12 29.92F NEWPORT NOT AVBL PINEY ISLAND CLOUDY 75 68 78 E18 29.93F WILMINGTON MOSUNNY 81 69 67 E8 29.91F $$ NCZ011>013-027>030-043-044-078>080-089-090>093-098-171800- COASTAL PLAIN CITY SKY/WX TMP DP RH WIND PRES REMARKS AHOSKIE MOSUNNY 71 63 75 CALM 29.99F CLINTON CLOUDY 77 70 79 NE7 29.95S ELIZABETHTOWN CLOUDY 75 70 83 CALM 29.94F GOLDSBORO PTSUNNY 77 71 81 NE1 29.94F GREENVILLE CLOUDY 75 66 73 E10 29.98F HAVELOCK PTSUNNY 79 71 76 NE15 29.93F KENANSVILLE NOT AVBL KINSTON PTSUNNY 81 68 65 NE10 29.99R NEW BERN PTSUNNY 82 68 62 NE12 29.94F RICHLANDS PTSUNNY 79 68 69 NE12 29.93F ROANOKE RAPIDS NOT AVBL ROCKY MOUNT MOSUNNY 77 65 66 NE7 29.98F WASHINGTON MOSUNNY 77 65 67 NE12 29.96F WHITEVILLE PTSUNNY 76 67 74 N3 29.93F HAZE $$ AMZ130-135-150-152-154-156-158-170-250-252-270-ANZ085-086-088-633-658-670-171800- MARINE OBSERVATIONS STATION/POSITION TIME TEMP WIND PRES WAVE SWELL AIR SEA DIR/SP/G HT/PER HT/PER (UTC) (F) (DEG/KT/KT) (MB) (FT/S) (FT/S) CHESAPEAKE LIGHT 1600 71 60/ 16/ 17 1016.4 BUOY 44014 1700 73 77 30/ 12/ 16 1014.6 5/14 5/14 DUCK 1700 73 76 50/ 14/ 17 1014.4 2E DUCK 1700 N/A 5/14 3/14 OREGON INLET 1700 75 76 40/ 14/ 19 1014.2 BUOY 44095 1700 76 N/A 6/14 3/14 20E OREGON INLET NOT AVBL HATTERAS CG 1700 77 79 70/ 8/ 12 1014.3 DIAMOND BUOY 1700 75 60/ 14/ 17 1013.0 6/ 7 5/ 7 CAPE LOOKOUT 1600 77 150/ 10/ 11 1013.1 BEAUFORT LAB 1700 77 79 80/ 9/ 14 1012.8 30 SE NEW RIVER 1700 78 81 110/ 8/ 12 1013.0 4/15 3/15 5 SE WRIGHTSVILL 1600 74 81 50/ 10/ 12 N/A BUOY 41002 1621 75 82 120/ 4/ 4 1011.9 6/13 5/13 BUOY 41004 1700 78 83 30/ 12/ 14 1012.6 4/15 3/15 $$

USA.gov is the U.S. government's official web portal to all federal, state and local government web resources and services.